Weather Roundup
Issued by NWS Chicago, IL

Home | Current Version | Previous Version | Graphics & Text | Print | Product List | Glossary On
Versions: 1 2 3 4 5 6 7 8 9 10 11 12 13 14 15 16 17 18 19 20 21 22 23 24 25 26 27 28 29 30 31 32 33 34 35 36 37 38 39 40 41 42 43 44 45 46 47 48 49 50
000
NZUS59 KLOT 230606
HRRLOT

CHICAGO AREA WEATHER ROUNDUP
NATIONAL WEATHER SERVICE CHICAGO/ROMEOVILLE IL
100 AM CDT TUE SEP 23 2014

NOTE: "FAIR" INDICATES FEW OR NO CLOUDS BELOW 12,000 FEET WITH NO
SIGNIFICANT WEATHER AND/OR OBSTRUCTIONS TO VISIBILITY.

* THESE STATIONS ARE NOT UNDER NWS QUALITY CONTROL. THEY ALSO MAY NOT
  REPORT WEATHER SUCH AS PRECIPITATION OR FOG.

ILZ005-006-012>014-019>023-230700-
NORTHEAST ILLINOIS

CITY           SKY/WX    TMP DP  RH WIND       PRES   REMARKS
OHARE          CLEAR     54  45  71 S3        30.27S
6HR MIN TEMP:  54; 6HR MAX TEMP:  65;

MIDWAY         CLEAR     55  44  66 S6        30.28S
6HR MIN TEMP:  55; 6HR MAX TEMP:  62;

AURORA         CLEAR     45  41  86 CALM      30.28R
6HR MIN TEMP:  45; 6HR MAX TEMP:  61;

LANSING*       CLEAR     46  44  92 CALM      30.29S
JOLIET*        CLEAR     47  45  94 CALM      30.29S
WAUKEGAN       CLEAR     52  46  80 VRB3      30.25S
6HR MIN TEMP:  50; 6HR MAX TEMP:  54;

DUPAGE AIRPORT CLEAR     50  46  86 SE3       30.27S
6HR MIN TEMP:  49; 6HR MAX TEMP:  61;

WHEELING       CLEAR     51  45  79 S3        30.29R
6HR MIN TEMP:  51; 6HR MAX TEMP:  65;

KANKAKEE*      CLEAR     46  45  96 CALM      30.30R FOG
MORRIS*        CLEAR     50  49  97 SE3       30.28R
LEWIS AIRPORT* CLEAR     46  44  93 S6        30.28S
NORTHERLY IS     N/A     57  43  59 S6          N/A
$$

WIZ051-052-058>065-066-070>072-230700-
SOUTHEAST WISCONSIN

CITY           SKY/WX    TMP DP  RH WIND       PRES   REMARKS
MILWAUKEE      CLEAR     54  47  77 S5        30.25S
6HR MIN TEMP:  53; 6HR MAX TEMP:  66;

KENOSHA*       CLEAR     47  45  93 SW3       30.26S
RACINE*        CLEAR     52  46  80 SW5       30.27R
BURLINGTON     CLEAR     42  42 100 CALM      30.25S
WAUKESHA       CLEAR     46  45  93 CALM      30.26R
WEST BEND      CLEAR     46  43  87 CALM      30.24R
$$

INZ001>003-010>013-019-020-230700-
NORTHWEST INDIANA

CITY           SKY/WX    TMP DP  RH WIND       PRES   REMARKS
GARY*          CLEAR     46  44  93 CALM      30.29R
6HR MIN TEMP:  46; 6HR MAX TEMP:  54;

MICHIGAN CITY* NOT AVBL
RENSSELAER*    NOT AVBL
VALPARAISO     CLEAR     47  44  90 CALM      30.29S
$$

LMZ740>746-230700-
SOUTHERN LAKE MICHIGAN

STATION/POSITION TIME  SKY/WX   TEMP WIND        PRES    VSBY
                                AIR  DIR/SP/G
                 (UTC)          (F)  (DEG/KT/KT) (MB)    (MI)
HARRISON CRIB    NOT AVBL
BURNHAM HARBOR   0600            56  210/  6/  7   N/A
CALUMET HARBOR   0600            55  200/  5/  7 1023.9R
BURNS HARBOR     NOT AVBL
MICHIGAN CITY    NOT AVBL
$$

ABBREVIATIONS USED IN REMARKS
   TC - TEMPERATURE IN CELSIUS
  WCI - WIND CHILL INDEX
   HX - HEAT INDEX
  VSB - VISIBILITY
$$


USA.gov is the U.S. government's official web portal to all federal, state and local government web resources and services.